Location: Christchurch
(43.5330°S, 172.6330°E)
Time: 18:16:40
(UTC+13:00)

SJ-6B - Pass Details

Date: 24 January 2019
Orbit: 511 x 582 km, 97.7° (Epoch: 20 February)

Event Time Altitude Azimuth Distance (km) Brightness Sun altitude
Rises 22:27:28 0° 176° (S) 2,669 6.9 -13.1°
Reaches altitude 10° 22:29:40 10° 183° (S) 1,774 6.1 -13.4°
Maximum altitude 22:33:13 38° 251° (WSW) 819 4.3 -13.9°
Drops below altitude 10° 22:36:45 10° 320° (NW) 1,767 5.4 -14.3°
Sets 22:38:56 0° 328° (NNW) 2,656 6.2 -14.6°
